This is the latest recevied weather packets stored in our database for station/object KC2GYU. If no packets are shown the sender has not sent any weather packets the latest 10 day(s).
| Time | Temp. | Humidity | Pressure | Rain* | Wind** | Luminosity | Snow |
|---|---|---|---|---|---|---|---|
| 1777488328 | 12.22° C | 86% | 1014.7 hPa | 0 mm | - | 241 W/m² | - |
| 1777488027 | 12.22° C | 84% | 1014.5 hPa | 0 mm | - | 189 W/m² | - |
| 1777487724 | 12.22° C | 84% | 1014.6 hPa | 0 mm | - | 171 W/m² | - |
| 1777487421 | 12.22° C | 84% | 1014.6 hPa | 0 mm | - | 190 W/m² | - |
| 1777487119 | 12.22° C | 83% | 1015 hPa | 0 mm | - | 196 W/m² | - |
| 1777486814 | 12.22° C | 82% | 1015.1 hPa | 0 mm | - | 192 W/m² | - |
| 1777486512 | 12.22° C | 82% | 1015.3 hPa | 0 mm | - | 144 W/m² | - |
| 1777486209 | 12.78° C | 81% | 1015.4 hPa | 0 mm | - | 186 W/m² | - |
| 1777485907 | 12.78° C | 80% | 1015 hPa | 0 mm | - | 206 W/m² | - |
| 1777485602 | 12.78° C | 81% | 1015.3 hPa | 0 mm | - | 212 W/m² | - |
| 1777485298 | 12.78° C | 82% | 1015.2 hPa | 0 mm | - | 235 W/m² | - |
| 1777484994 | 12.78° C | 81% | 1015.3 hPa | 0 mm | - | 223 W/m² | - |
| 1777484692 | 12.78° C | 80% | 1015.3 hPa | 0 mm | - | 240 W/m² | - |
| 1777484388 | 12.78° C | 79% | 1015.3 hPa | 0 mm | - | 291 W/m² | - |
| 1777484084 | 12.78° C | 80% | 1015.3 hPa | 0 mm | - | 276 W/m² | - |
| 1777483780 | 12.78° C | 80% | 1015.3 hPa | 0 mm | - | 257 W/m² | - |
| 1777483477 | 12.78° C | 81% | 1015.5 hPa | 0 mm | - | 279 W/m² | - |
| 1777483173 | 12.78° C | 81% | 1015.6 hPa | 0 mm | - | 266 W/m² | - |
| 1777482869 | 13.33° C | 80% | 1015.3 hPa | 0 mm | - | 278 W/m² | - |
| 1777482565 | 13.33° C | 80% | 1015.6 hPa | 0 mm | - | 271 W/m² | - |
| 1777482263 | 13.33° C | 79% | 1015.8 hPa | 0 mm | - | 434 W/m² | - |
| 1777481960 | 13.33° C | 79% | 1015.5 hPa | 0 mm | - | 394 W/m² | - |
| 1777481658 | 13.33° C | 80% | 1015.6 hPa | 0 mm | - | 454 W/m² | - |
| 1777481354 | 13.89° C | 80% | 1015.9 hPa | 0 mm | - | 526 W/m² | - |
| 1777481051 | 13.33° C | 81% | 1016.1 hPa | 0 mm | - | 348 W/m² | - |
* Rain latest hour (hover to see other rain measurements)
** Current wind speed in m/s (hover to see current wind gust speed)